Location: Clarks Summit,Pa.
(41.5000°N, 75.6000°W)
Time: 10:58:10
(UTC-05:00)

Envisat - Pass Details

Date: 22 November 2018
Orbit: 764 x 766 km, 98.2° (Epoch: 13 December)

Event Time Altitude Azimuth Distance (km) Brightness Sun altitude
Rises 17:50:53 0° 132° (SE) 3,222 5.9 -13.7°
Enters shadow 17:51:03 - 131° (SE) 3,162 5.9 -13.7°
Exits shadow 17:55:12 18° 104° (ESE) 1,830 4.4 -14.5°
Maximum altitude 17:57:35 25° 66° (ENE) 1,523 3.9 -14.9°
Drops below altitude 10° 18:01:39 10° 12° (NNE) 2,311 5.2 -15.6°
Sets 18:04:18 0° 360° (N) 3,242 6.1 -16.1°
